Skip Page Navigation
NASA JPL Caltech
NASA Logo - Jet Propulsion Laboratory + View the NASA Portal
+ Near-Earth Object (NEO) Program
Search JPL
JPL Home Earth Solar System Stars & Galaxies Technology
JPL Solar System Dynamics
BODIES ORBITS EPHEMERIDES TOOLS PHYSICAL DATA DISCOVERY FAQ SITE MAP
JPL Small-Body Database Browser
Search: [ help ]  
(2000 UK11)
Classification: Aten [NEO]          SPK-ID: 3054373
Ephemeris | Orbit Diagram | Orbital Elements | Physical Parameters | Close-Approach Data ]

[ hide orbit diagram ]
Orbit Diagram
Note: Make sure you have Java enabled on your browser to see the applet. This applet is provided as a 3D orbit visualization tool. The applet was implemented using 2-body methods, and hence should not be used for determining accurate long-term trajectories (over several years or decades) or planetary encounter circumstances. For accurate long-term ephemerides, please instead use our Horizons system.
Orbit Viewer

Additional Notes: the orbits shown in the applet are color coded. The planets are white lines, and the asteroid/comet is a blue line. The bright white line indicates the portion of the orbit that is above the ecliptic plane, and the darker portion is below the ecliptic plane. Likewise for the asteroid/comet orbit, the light blue indicates the portion above the ecliptic plane, and the dark blue the portion below the ecliptic plane.

Orbit Viewer applet originally written and kindly provided by Osamu Ajiki (AstroArts), and further modified by Ron Baalke (JPL).


Orbital Elements at Epoch 2456400.5 (2013-Apr-18.0) TDB
Reference: JPL 26 (heliocentric ecliptic J2000)
 Element Value Uncertainty (1-sigma)   Units 
e .2486339668824014 1.0573e-06  
a .8826476937934106 6.4197e-07 AU
q .6631914963259518 1.316e-06 AU
i .7851870884013838 2.7761e-05 deg
node 237.2238403862158 0.00074503 deg
peri 293.6698631054354 0.00081315 deg
M 251.3326390863821 0.0015945 deg
tp 2456491.927350050560
(2013-Jul-18.42735005)
0.001441 JED
period 302.8862184696418
0.83
0.00033045
9.047e-07
d
yr
n 1.188565137822811 1.2967e-06 deg/d
Q 1.102103891260869 8.0159e-07 AU
  Orbit Determination Parameters
   # obs. used (total)      68  
   # delay obs. used      1  
   # Doppler obs. used      2  
   data-arc span      8 days  
   first obs. used      2000-10-25  
   last obs. used      2000-11-02  
   planetary ephem.      DE405  
   SB-pert. ephem.      SB405-CPV-2  
   condition code      3  
   fit RMS      .57874  
   data source      ORB  
   producer      Otto Matic  
   solution date      2011-Sep-14 19:39:25  

Additional Information
 Earth MOID = .00424926 AU 
 T_jup = 6.693 
[ show covariance matrix ]

Ephemeris | Orbit Diagram | Orbital Elements | Physical Parameters | Close-Approach Data ]

Physical Parameter Table
Parameter Symbol Value Units Sigma Reference Notes
absolute magnitude H 25.022 mag 1.2794 26 autocmod 2.5a
rotation period rot_per 0.026599 h n/a Asteroid Lightcurve DataBase (Rev. 2013-May-01) Result based on less than full coverage, so that the period may be wrong by 30 percent or so.
Published Reference List:
[Whiteley, R.J.; Hergenrother, C.W.; Tholen, D.J. (2002) Proc. ACM 2002, 473-480.]
[Hergenrother, C.W.; Whitely, R.J. (2011) Icarus 214, 194-209.]

[ show close-approach data ]
Ephemeris | Orbit Diagram | Orbital Elements | Physical Parameters | Close-Approach Data ]
ABOUT SSD CREDITS/AWARDS PRIVACY/COPYRIGHT GLOSSARY LINKS
FirstGov 2013-May-26 01:11 UT
(server date/time)  
NASA Home Page
Site Manager:   Donald K. Yeomans
Webmaster  Alan B. Chamberlin